Weather History for Cairns, QU

Change the Weather History Date:

Sunday, October 24, 2010

  Actual Average Record
Temperature  
Mean Temperature 80 °F -  
Max Temperature 86 °F 87 °F 95 °F (2002)
Min Temperature 73 °F 71 °F 68 °F (1996)
Cooling Degree Days 14    
Growing Degree Days 30 (Base 50)    
Moisture  
Dew Point 69 °F    
Average Humidity 69    
Maximum Humidity 83    
Minimum Humidity 48    
Precipitation  
Precipitation 0.00 in 0.12 in - ()
Sea Level Pressure  
Sea Level Pressure 29.92 in    
Wind  
Wind Speed 12 mph ()    
Max Wind Speed 20 mph    
Max Gust Speed -    
Visibility 7.8 miles    
Events      
Averages and records for this station are not official NWS values.
T = Trace of Precipitation, MM = Missing Value Source: Averaged Metar Reports

Daily Weather History Graph

Daily Weather History Graph

Search for Another Location

Airport:

Trip Planner

Search our weather history database for the weather conditions in past years. The results will help you decide how hot, cold, wet, or windy it might be!

Date:

Astronomy

Oct. 24, 2010 Rise Set
Actual Time 5:43 AM AEST 6:19 PM AEST
Civil Twilight 5:21 AM AEST 6:41 PM AEST
Nautical Twilight 4:55 AM AEST 7:07 PM AEST
Astronomical Twilight 4:29 AM AEST 7:33 PM AEST
Moon 7:21 PM AEST (10/24) 6:05 AM AEST (10/24)
Length of Visible Light 13h 20m
Length of Day
12h 35m
Full, 99% of the Moon is Illuminated
Oct 24
Full
Oct 30
Last Quarter
Nov 6
New
Nov 14
First Quarter
Nov 22
Full

Hourly Weather History & Observations

Time (AEST) Temp. Heat Index Dew Point Humidity Pressure Visibility Wind Dir Wind Speed Gust Speed Precip Events Conditions
12:00 AM 74 °F - 69 °F 79% 29.96 in - South 10.4 mph - -  
12:00 AM 75.2 °F - 68.0 °F 78% 29.95 in 6.2 mi South 10.4 mph - N/A   Partly Cloudy
12:30 AM 75.2 °F - 68.0 °F 78% 29.95 in 6.2 mi South 9.2 mph - N/A   Partly Cloudy
1:00 AM 75 °F - 68 °F 74% 29.94 in - South 10.4 mph - -  
1:00 AM 75.2 °F - 68.0 °F 78% 29.92 in 6.2 mi South 10.4 mph - N/A   Partly Cloudy
1:30 AM 75.2 °F - 68.0 °F 78% 29.92 in 6.2 mi South 10.4 mph - N/A   Partly Cloudy
2:00 AM 75.2 °F - 68.0 °F 78% 29.92 in 6.2 mi South 9.2 mph - N/A   Scattered Clouds
2:30 AM 75.2 °F - 68.0 °F 78% 29.89 in 6.2 mi South 10.4 mph - N/A   Mostly Cloudy
3:00 AM 75 °F - 68 °F 73% 29.89 in 19 mi South 11.5 mph - -   Partly Cloudy
3:00 AM 75.2 °F - 68.0 °F 78% 29.89 in 6.2 mi South 11.5 mph - N/A   Scattered Clouds
3:30 AM 75.2 °F - 68.0 °F 78% 29.89 in 6.2 mi South 10.4 mph - N/A   Partly Cloudy
4:00 AM 74 °F - 68 °F 78% 29.90 in - South 10.4 mph - -  
4:00 AM 73.4 °F - 68.0 °F 83% 29.89 in 6.2 mi South 10.4 mph - N/A   Partly Cloudy
5:00 AM 73.4 °F - 68.0 °F 83% 29.89 in 6.2 mi South 10.4 mph - N/A   Partly Cloudy
5:30 AM 73.4 °F - 68.0 °F 83% 29.89 in 6.2 mi South 9.2 mph - N/A   Partly Cloudy
6:00 AM 74 °F - 67 °F 74% 29.92 in 19 mi SSE 10.4 mph - -   Partly Cloudy
6:00 AM 73.4 °F - 68.0 °F 83% 29.92 in 6.2 mi SSE 10.4 mph - N/A   Partly Cloudy
6:30 AM 75.2 °F - 68.0 °F 78% 29.92 in 6.2 mi South 10.4 mph - N/A   Partly Cloudy
7:00 AM 76 °F - 68 °F 70% 29.95 in - South 10.4 mph - -  
7:00 AM 77.0 °F - 68.0 °F 74% 29.92 in 6.2 mi South 10.4 mph - N/A   Partly Cloudy
7:30 AM 77.0 °F - 68.0 °F 74% 29.95 in 6.2 mi SSE 11.5 mph - N/A   Scattered Clouds
8:00 AM 78.8 °F - 68.0 °F 69% 29.95 in 6.2 mi South 12.7 mph - N/A   Scattered Clouds
8:30 AM 80.6 °F 83.2 °F 68.0 °F 65% 29.95 in 6.2 mi South 11.5 mph - N/A   Partly Cloudy
9:00 AM 82 °F - 70 °F 58% 29.97 in 19 mi South 15.0 mph - -   Partly Cloudy
9:00 AM 82.4 °F 86.3 °F 69.8 °F 66% 29.95 in 6.2 mi South 15.0 mph - N/A   Partly Cloudy
9:30 AM 84.2 °F 87.3 °F 68.0 °F 58% 29.95 in 6.2 mi SE 18.4 mph - N/A   Partly Cloudy
10:00 AM 83 °F - 69 °F 54% 29.97 in - SE 19.6 mph - -  
10:00 AM 84.2 °F 88.4 °F 69.8 °F 62% 29.95 in 6.2 mi SE 19.6 mph - N/A   Partly Cloudy
10:30 AM 84.2 °F 88.4 °F 69.8 °F 62% 29.95 in 6.2 mi ESE 16.1 mph - N/A   Scattered Clouds
11:00 AM 84.2 °F 87.3 °F 68.0 °F 58% 29.95 in 6.2 mi SE 16.1 mph - N/A   Partly Cloudy
11:30 AM 84.2 °F 87.3 °F 68.0 °F 58% 29.95 in 6.2 mi SE 19.6 mph - N/A   Partly Cloudy
12:00 PM 85 °F - 68 °F 48% 29.94 in 19 mi SE 19.6 mph - -   Partly Cloudy
12:00 PM 86.0 °F 89.4 °F 68.0 °F 55% 29.92 in 6.2 mi SE 19.6 mph - N/A   Partly Cloudy
12:30 PM 86.0 °F 89.4 °F 68.0 °F 55% 29.92 in 6.2 mi SE 18.4 mph - N/A   Partly Cloudy
1:00 PM 86 °F - 69 °F 48% 29.92 in - SE 19.6 mph - -  
1:00 PM 86.0 °F 90.4 °F 69.8 °F 58% 29.92 in 6.2 mi SE 19.6 mph - N/A   Partly Cloudy
1:30 PM 86.0 °F 89.4 °F 68.0 °F 55% 29.89 in 6.2 mi SE 18.4 mph - N/A   Scattered Clouds
2:00 PM 86.0 °F 89.4 °F 68.0 °F 55% 29.89 in 6.2 mi SE 18.4 mph - N/A   Scattered Clouds
2:30 PM 84.2 °F 87.3 °F 68.0 °F 58% 29.89 in 6.2 mi SE 17.3 mph - N/A   Scattered Clouds
3:00 PM 84 °F - 69 °F 51% 29.88 in 19 mi SE 17.3 mph - -   Partly Cloudy
3:00 PM 84.2 °F 87.3 °F 68.0 °F 58% 29.86 in 6.2 mi SE 17.3 mph - N/A   Scattered Clouds
3:30 PM 84.2 °F 87.3 °F 68.0 °F 58% 29.86 in 6.2 mi SE 16.1 mph - N/A   Scattered Clouds
4:00 PM 83 °F - 68 °F 51% 29.89 in - ESE 15.0 mph - -  
4:00 PM 84.2 °F 87.3 °F 68.0 °F 58% 29.86 in 6.2 mi ESE 15.0 mph - N/A   Scattered Clouds
4:30 PM 82.4 °F 85.4 °F 68.0 °F 62% 29.86 in 6.2 mi SE 16.1 mph - N/A   Scattered Clouds
5:00 PM 82.4 °F 86.3 °F 69.8 °F 66% 29.89 in 6.2 mi ESE 16.1 mph - N/A   Scattered Clouds
5:30 PM 80.6 °F 83.2 °F 68.0 °F 65% 29.89 in 6.2 mi SE 13.8 mph - N/A   Partly Cloudy
6:00 PM 79 °F - 69 °F 65% 29.91 in 19 mi SSE 15.0 mph - -   Partly Cloudy
6:00 PM 78.8 °F - 69.8 °F 74% 29.92 in 6.2 mi SSE 15.0 mph - N/A   Partly Cloudy
6:30 PM 78.8 °F - 69.8 °F 74% 29.92 in 6.2 mi SSE 12.7 mph - N/A   Scattered Clouds
7:00 PM 77 °F - 71 °F 75% 29.94 in - SE 15.0 mph - -  
7:00 PM 77.0 °F - 69.8 °F 78% 29.92 in 6.2 mi SE 15.0 mph - N/A   Scattered Clouds
7:30 PM 77.0 °F - 69.8 °F 78% 29.95 in 6.2 mi SSE 11.5 mph - N/A   Scattered Clouds
8:00 PM 77.0 °F - 68.0 °F 74% 29.95 in 6.2 mi SSE 11.5 mph - N/A   Partly Cloudy
8:30 PM 77.0 °F - 68.0 °F 74% 29.95 in 6.2 mi South 9.2 mph - N/A   Scattered Clouds
9:00 PM 76 °F - 69 °F 73% 29.97 in 16 mi South 8.1 mph - -   Partly Cloudy
9:00 PM 75.2 °F - 69.8 °F 83% 29.95 in 6.2 mi South 8.1 mph - N/A   Partly Cloudy
9:30 PM 75.2 °F - 69.8 °F 83% 29.98 in 6.2 mi South 9.2 mph - N/A   Partly Cloudy
10:00 PM 76 °F - 69 °F 73% 29.98 in - South 9.2 mph - -  
10:00 PM 75.2 °F - 69.8 °F 83% 29.95 in 6.2 mi South 9.2 mph - N/A   Partly Cloudy
10:30 PM 75.2 °F - 69.8 °F 83% 29.98 in 6.2 mi South 9.2 mph - N/A   Partly Cloudy
11:00 PM 75.2 °F - 69.8 °F 83% 29.95 in 6.2 mi South 8.1 mph - N/A   Partly Cloudy
11:30 PM 75.2 °F - 68.0 °F 78% 29.95 in 6.2 mi South 9.2 mph - N/A   Partly Cloudy